Moultrie, GA

6:17 PM EDT on April 21, 2018 (GMT -0400)
Moultrie Municipal

Weather History for KMGR - November, 2013

Change the Weather History Date:

Sunday, November 24, 2013

  Actual Average (KMUL) Record (KMUL)
Temperature  
Mean Temperature 48 °F -  
Max Temperature 55 °F 69 °F 86 °F (1967)
Min Temperature 41 °F 46 °F 18 °F (1970)
Degree Days  
Heating Degree Days 17    
Moisture  
Dew Point 30 °F    
Average Humidity 49    
Maximum Humidity 66    
Minimum Humidity 33    
Precipitation  
Precipitation 0.00 in - - ()
Sea Level Pressure  
Sea Level Pressure 30.30 in    
Wind  
Wind Speed 10 mph (NNE)    
Max Wind Speed 16 mph    
Max Gust Speed 22 mph    
Visibility 10 miles    
Events      
Averages and records for this station are not official NWS values.
T = Trace of Precipitation, MM = Missing Value Source: NWS Daily Summary

Daily Weather History Graph

Daily Weather History Graph

Search for Another Location

Airport or City:

Astronomy

Nov. 24, 2013 Rise Set
Actual Time 7:10 AM EST 5:33 PM EST
Civil Twilight 6:44 AM EST 5:59 PM EST
Nautical Twilight 6:14 AM EST 6:29 PM EST
Astronomical Twilight 5:45 AM EST 6:58 PM EST
Moon 11:45 PM EST (11/24) 12:08 PM EST (11/24)
Length of Visible Light 11h 15m
Length of Day
10h 23m
Waning Gibbous, 61% of the Moon is Illuminated
Nov 24
Waning Gibbous
Nov 25
Last Quarter
Dec 2
New
Dec 9
First Quarter
Dec 17
Full

Hourly Weather History & Observations

Time (EST) Temp. Windchill Dew Point Humidity Pressure Visibility Wind Dir Wind Speed Gust Speed Precip Events Conditions
12:15 AM 55.4 °F - 37.4 °F 51% 30.18 in 10.0 mi North 12.7 mph 16.1 mph N/A   Overcast
12:35 AM 53.6 °F - 35.6 °F 51% 30.18 in 10.0 mi North 10.4 mph 17.3 mph N/A   Overcast
12:55 AM 53.6 °F - 35.6 °F 51% 30.18 in 10.0 mi North 10.4 mph 17.3 mph N/A   Overcast
1:15 AM 53.6 °F - 35.6 °F 51% 30.18 in 10.0 mi North 9.2 mph - N/A   Overcast
1:35 AM 53.6 °F - 35.6 °F 51% 30.18 in 10.0 mi North 9.2 mph - N/A   Mostly Cloudy
1:55 AM 53.6 °F - 33.8 °F 47% 30.19 in 10.0 mi North 11.5 mph 17.3 mph N/A   Mostly Cloudy
2:15 AM 53.6 °F - 33.8 °F 47% 30.19 in 10.0 mi North 5.8 mph - N/A   Overcast
2:35 AM 53.6 °F - 33.8 °F 47% 30.19 in 10.0 mi North 9.2 mph - N/A   Overcast
2:55 AM 53.6 °F - 32.0 °F 44% 30.19 in 10.0 mi North 10.4 mph 17.3 mph N/A   Overcast
3:15 AM 51.8 °F - 32.0 °F 47% 30.19 in 10.0 mi North 9.2 mph - N/A   Overcast
3:35 AM 51.8 °F - 32.0 °F 47% 30.20 in 10.0 mi North 12.7 mph 17.3 mph N/A   Scattered Clouds
3:55 AM 50.0 °F - 32.0 °F 50% 30.21 in 10.0 mi North 12.7 mph 17.3 mph N/A   Clear
4:15 AM 50.0 °F - 32.0 °F 50% 30.21 in 10.0 mi North 8.1 mph 16.1 mph N/A   Clear
4:35 AM 48.2 °F - 32.0 °F 54% 30.21 in 10.0 mi North 10.4 mph 17.3 mph N/A   Clear
4:55 AM 46.4 °F 42.9 °F 32.0 °F 57% 30.22 in 10.0 mi North 6.9 mph - N/A   Clear
5:15 AM 46.4 °F 42.4 °F 32.0 °F 57% 30.23 in 10.0 mi North 8.1 mph - N/A   Clear
5:35 AM 46.4 °F 41.5 °F 32.0 °F 57% 30.25 in 10.0 mi North 10.4 mph - N/A   Clear
5:55 AM 44.6 °F 38.8 °F 32.0 °F 61% 30.25 in 10.0 mi North 11.5 mph 16.1 mph N/A   Clear
6:15 AM 44.6 °F 39.7 °F 32.0 °F 61% 30.26 in 10.0 mi North 9.2 mph - N/A   Clear
6:35 AM 44.6 °F 39.7 °F 32.0 °F 61% 30.27 in 10.0 mi North 9.2 mph - N/A   Clear
6:55 AM 44.6 °F 38.8 °F 32.0 °F 61% 30.28 in 10.0 mi North 11.5 mph - N/A   Clear
7:15 AM 42.8 °F 36.6 °F 32.0 °F 66% 30.29 in 10.0 mi North 11.5 mph - N/A   Clear
7:35 AM 42.8 °F 38.0 °F 32.0 °F 66% 30.31 in 10.0 mi North 8.1 mph - N/A   Clear
7:55 AM 42.8 °F 37.0 °F 32.0 °F 66% 30.31 in 10.0 mi North 10.4 mph - N/A   Clear
8:15 AM 42.8 °F 35.8 °F 32.0 °F 66% 30.32 in 10.0 mi North 13.8 mph 18.4 mph N/A   Clear
8:35 AM 44.6 °F 38.1 °F 32.0 °F 61% 30.32 in 10.0 mi North 13.8 mph 21.9 mph N/A   Clear
8:55 AM 44.6 °F 38.1 °F 32.0 °F 61% 30.33 in 10.0 mi NNE 13.8 mph 19.6 mph N/A   Clear
9:15 AM 44.6 °F 37.8 °F 32.0 °F 61% 30.34 in 10.0 mi NNE 15.0 mph 19.6 mph N/A   Clear
9:35 AM 46.4 °F 40.1 °F 30.2 °F 53% 30.34 in 10.0 mi NNE 15.0 mph 21.9 mph N/A   Clear
9:55 AM 48.2 °F - 30.2 °F 50% 30.35 in 10.0 mi NNE 13.8 mph 19.6 mph N/A   Clear
10:15 AM 50.0 °F - 30.2 °F 47% 30.35 in 10.0 mi NE 9.2 mph 18.4 mph N/A   Clear
10:35 AM 50.0 °F - 30.2 °F 47% 30.35 in 10.0 mi NNE 11.5 mph 17.3 mph N/A   Clear
10:55 AM 51.8 °F - 28.4 °F 41% 30.36 in 10.0 mi NNE 13.8 mph 19.6 mph N/A   Clear
11:15 AM 51.8 °F - 28.4 °F 41% 30.36 in 10.0 mi NNE 10.4 mph 19.6 mph N/A   Clear
11:35 AM 53.6 °F - 28.4 °F 38% 30.35 in 10.0 mi NNE 12.7 mph - N/A   Clear
11:55 AM 53.6 °F - 28.4 °F 38% 30.34 in 10.0 mi NNE 16.1 mph 20.7 mph N/A   Clear
12:15 PM 53.6 °F - 28.4 °F 38% 30.34 in 10.0 mi NE 12.7 mph 19.6 mph N/A   Clear
12:35 PM 53.6 °F - 28.4 °F 38% 30.33 in 10.0 mi NNE 9.2 mph 16.1 mph N/A   Clear
12:55 PM 53.6 °F - 28.4 °F 38% 30.32 in 10.0 mi NNE 15.0 mph 21.9 mph N/A   Clear
1:15 PM 53.6 °F - 28.4 °F 38% 30.31 in 10.0 mi NE 12.7 mph 17.3 mph N/A   Clear
1:35 PM 55.4 °F - 28.4 °F 36% 30.30 in 10.0 mi NNE 13.8 mph 18.4 mph N/A   Clear
1:55 PM 55.4 °F - 28.4 °F 36% 30.29 in 10.0 mi NNE 10.4 mph - N/A   Clear
2:15 PM 55.4 °F - 28.4 °F 36% 30.29 in 10.0 mi ENE 9.2 mph 16.1 mph N/A   Clear
2:35 PM 55.4 °F - 28.4 °F 36% 30.29 in 10.0 mi ENE 6.9 mph 16.1 mph N/A   Clear
2:55 PM 55.4 °F - 28.4 °F 36% 30.29 in 10.0 mi NNE 9.2 mph - N/A   Clear
3:15 PM 55.4 °F - 26.6 °F 33% 30.29 in 10.0 mi NE 10.4 mph - N/A   Clear
3:35 PM 55.4 °F - 28.4 °F 36% 30.29 in 10.0 mi NE 6.9 mph - N/A   Clear
3:55 PM 55.4 °F - 28.4 °F 36% 30.30 in 10.0 mi NE 9.2 mph - N/A   Clear
4:15 PM 55.4 °F - 28.4 °F 36% 30.30 in 10.0 mi ENE 8.1 mph - N/A   Clear
4:35 PM 53.6 °F - 26.6 °F 35% 30.31 in 10.0 mi NE 6.9 mph - N/A   Clear
4:55 PM 53.6 °F - 26.6 °F 35% 30.32 in 10.0 mi ENE 6.9 mph - N/A   Clear
5:15 PM 51.8 °F - 26.6 °F 38% 30.33 in 10.0 mi NE 4.6 mph - N/A   Clear
5:35 PM 50.0 °F - 28.4 °F 43% 30.33 in 10.0 mi Calm Calm - N/A   Clear
5:55 PM 50.0 °F - 28.4 °F 43% 30.33 in 10.0 mi Calm Calm - N/A   Clear
6:15 PM 48.2 °F - 30.2 °F 50% 30.34 in 10.0 mi NNE 3.5 mph - N/A   Clear
6:35 PM 46.4 °F - 30.2 °F 53% 30.35 in 10.0 mi Calm Calm - N/A   Clear
6:55 PM 46.4 °F 45.2 °F 30.2 °F 53% 30.36 in 10.0 mi NE 3.5 mph - N/A   Clear
7:15 PM 44.6 °F 43.1 °F 30.2 °F 57% 30.36 in 10.0 mi NE 3.5 mph - N/A   Clear
7:35 PM 44.6 °F 43.1 °F 30.2 °F 57% 30.36 in 10.0 mi NE 3.5 mph - N/A   Clear
7:55 PM 44.6 °F 42.2 °F 30.2 °F 57% 30.36 in 10.0 mi ENE 4.6 mph - N/A   Clear
8:15 PM 44.6 °F 43.1 °F 30.2 °F 57% 30.38 in 10.0 mi NE 3.5 mph - N/A   Clear
8:35 PM 42.8 °F 40.1 °F 30.2 °F 61% 30.37 in 10.0 mi NE 4.6 mph - N/A   Clear
8:55 PM 44.6 °F 41.4 °F 28.4 °F 53% 30.38 in 10.0 mi NE 5.8 mph - N/A   Clear
9:15 PM 44.6 °F 41.4 °F 28.4 °F 53% 30.39 in 10.0 mi ENE 5.8 mph - N/A   Clear
9:35 PM 44.6 °F 41.4 °F 26.6 °F 49% 30.39 in 10.0 mi ENE 5.8 mph - N/A   Clear
9:55 PM 42.8 °F 39.3 °F 26.6 °F 53% 30.40 in 10.0 mi ENE 5.8 mph - N/A   Clear
10:15 PM 42.8 °F 40.1 °F 26.6 °F 53% 30.40 in 10.0 mi East 4.6 mph - N/A   Clear
10:35 PM 42.8 °F 41.1 °F 26.6 °F 53% 30.41 in 10.0 mi East 3.5 mph - N/A   Clear
10:55 PM 41.0 °F 38.0 °F 26.6 °F 57% 30.41 in 10.0 mi East 4.6 mph - N/A   Clear
11:15 PM 41.0 °F 38.0 °F 26.6 °F 57% 30.41 in 10.0 mi ENE 4.6 mph - N/A   Clear
11:35 PM 41.0 °F 37.1 °F 26.6 °F 57% 30.40 in 10.0 mi ENE 5.8 mph - N/A   Clear
11:55 PM 41.0 °F 37.1 °F 26.6 °F 57% 30.40 in 10.0 mi ENE 5.8 mph - N/A   Clear